| time (UTC) | temp F | wind direction | speed knots | gust knots | rain 1hr in | rain 24hr in | rain mn in | humidity % | barometer mb |
| 20260504183027 | 74 | 194 | 7.0 | 18.2 | 0.00 | 0.00 | 0.00 | 39 | 1002.9 |
| 20260504181508 | 73 | 227 | 7.8 | 15.6 | 0.00 | 0.00 | 0.00 | 39 | 1003.0 |
| 20260504180012 | 73 | 220 | 6.1 | 15.6 | 0.00 | 0.00 | 0.00 | 39 | 1003.2 |
| 20260504174516 | 72 | 203 | 7.0 | 13.9 | 0.00 | 0.00 | 0.00 | 43 | 1003.6 |
| 20260504173022 | 72 | 203 | 5.2 | 17.4 | 0.00 | 0.00 | 0.00 | 42 | 1003.8 |
| 20260504171524 | 71 | 235 | 6.1 | 17.4 | 0.00 | 0.00 | 0.00 | 45 | 1003.9 |
| 20260504081527 | 46 | 201 | 1.7 | 8.7 | 0.00 | 0.00 | 0.00 | 79 | 1006.6 |
| 20260504050003 | 49 | 180 | 4.3 | 9.6 | 0.00 | 0.00 | 0.00 | 71 | 1008.8 |
| 20260504044510 | 50 | 202 | 4.3 | 12.2 | 0.00 | 0.00 | 0.00 | 70 | 1008.9 |
| 20260504043012 | 49 | 215 | 2.6 | 11.3 | 0.00 | 0.00 | 0.00 | 71 | 1009.0 |
| 20260504041513 | 49 | 221 | 3.5 | 8.7 | 0.00 | 0.00 | 0.00 | 70 | 1009.1 |
| 20260504040020 | 49 | 200 | 5.2 | 13.0 | 0.00 | 0.00 | 0.00 | 70 | 1009.1 |
| 20260504034503 | 50 | 232 | 5.2 | 11.3 | 0.00 | 0.00 | 0.00 | 69 | 1009.2 |
| 20260504033006 | 50 | 227 | 4.3 | 10.4 | 0.00 | 0.00 | 0.00 | 69 | 1009.6 |
| 20260504031510 | 50 | 234 | 3.5 | 11.3 | 0.00 | 0.00 | 0.00 | 69 | 1009.6 |
| 20260504030014 | 49 | 186 | 4.3 | 10.4 | 0.00 | 0.00 | 0.00 | 70 | 1009.8 |
| 20260504024518 | 49 | 228 | 2.6 | 11.3 | 0.00 | 0.00 | 0.00 | 71 | 1009.9 |
| 20260504023004 | 49 | 229 | 3.5 | 9.6 | 0.00 | 0.00 | 0.00 | 72 | 1009.9 |
| 20260504021510 | 49 | 206 | 2.6 | 9.6 | 0.00 | 0.00 | 0.00 | 73 | 1010.1 |
| 20260504020010 | 49 | 202 | 2.6 | 7.8 | 0.00 | 0.00 | 0.00 | 73 | 1010.1 |
| 20260504014514 | 49 | 204 | 3.5 | 8.7 | 0.00 | 0.00 | 0.00 | 73 | 1010.1 |
| 20260504013025 | 49 | 211 | 2.6 | 7.0 | 0.00 | 0.00 | 0.00 | 73 | 1010.1 |
| 20260504011505 | 49 | 246 | 4.3 | 9.6 | 0.00 | 0.00 | 0.00 | 71 | 1010.2 |
| 20260504010007 | 50 | 192 | 2.6 | 7.8 | 0.00 | 0.00 | 0.00 | 70 | 1010.3 |
| 20260504004532 | 51 | 202 | 4.3 | 11.3 | 0.00 | 0.00 | 0.00 | 68 | 1010.4 |
| 20260504003018 | 51 | 211 | 3.5 | 9.6 | 0.00 | 0.00 | 0.00 | 67 | 1010.6 |
| 20260504001531 | 52 | 200 | 3.5 | 9.6 | 0.00 | 0.00 | 0.00 | 67 | 1010.7 |
| 20260504000007 | 52 | 198 | 3.5 | 10.4 | 0.00 | 0.00 | 0.00 | 66 | 1010.7 |
| 20260503234517 | 52 | 213 | 5.2 | 12.2 | 0.00 | 0.00 | 0.00 | 65 | 1010.8 |
| 20260503233015 | 53 | 217 | 4.3 | 12.2 | 0.00 | 0.00 | 0.00 | 63 | 1010.9 |
| 20260503231521 | 54 | 192 | 5.2 | 12.2 | 0.00 | 0.00 | 0.00 | 61 | 1011.0 |
| 20260503230024 | 55 | 180 | 7.8 | 16.5 | 0.00 | 0.00 | 0.00 | 60 | 1011.1 |
| 20260503224528 | 56 | 198 | 6.1 | 15.6 | 0.00 | 0.00 | 0.00 | 57 | 1010.9 |
| 20260503223012 | 59 | 267 | 7.0 | 13.0 | 0.00 | 0.00 | 0.00 | 49 | 1010.7 |
| 20260503221519 | 59 | 219 | 7.0 | 15.6 | 0.00 | 0.00 | 0.00 | 47 | 1010.6 |
| 20260503220030 | 59 | 184 | 9.6 | 15.6 | 0.00 | 0.00 | 0.00 | 46 | 1010.4 |
| 20260503214536 | 59 | 158 | 7.8 | 16.5 | 0.00 | 0.00 | 0.00 | 46 | 1010.4 |
| 20260503213033 | 59 | 270 | 9.6 | 19.1 | 0.00 | 0.00 | 0.00 | 46 | 1010.4 |
| 20260503211528 | 60 | 235 | 6.1 | 20.0 | 0.00 | 0.00 | 0.00 | 46 | 1010.5 |
| 20260503210020 | 62 | 176 | 7.0 | 17.4 | 0.00 | 0.00 | 0.00 | 43 | 1010.6 |
| 20260503204528 | 62 | 212 | 8.7 | 18.2 | 0.00 | 0.00 | 0.00 | 43 | 1010.6 |
| 20260503203003 | 61 | 171 | 5.2 | 19.1 | 0.00 | 0.00 | 0.00 | 45 | 1010.8 |
| 20260503201504 | 61 | 243 | 4.3 | 17.4 | 0.00 | 0.00 | 0.00 | 45 | 1010.9 |
| 20260503200004 | 61 | 231 | 8.7 | 20.0 | 0.00 | 0.00 | 0.00 | 42 | 1010.9 |
| 20260503194504 | 62 | 269 | 9.6 | 18.2 | 0.00 | 0.00 | 0.00 | 43 | 1011.2 |
| 20260503193007 | 61 | 254 | 8.7 | 17.4 | 0.00 | 0.00 | 0.00 | 42 | 1011.4 |
| 20260503191503 | 61 | 203 | 7.8 | 15.6 | 0.00 | 0.00 | 0.00 | 45 | 1011.7 |
| 20260503190006 | 61 | 203 | 7.0 | 19.1 | 0.00 | 0.00 | 0.00 | 43 | 1011.7 |
| 20260503184507 | 61 | 236 | 6.1 | 15.6 | 0.00 | 0.00 | 0.00 | 44 | 1011.8 |